Location: Newark
(17.9939°S, 31.0481°E)
Time: 02:42:29
(UTC+00:00)

Tiros 1 despin weight - All Passes

Search period start: 23 November 2019 00:00
Search period end: 03 December 2019 00:00
Orbit: 594 x 642 km, 48.2° (Epoch: 22 November)

Date Brightness Start Highest point End Pass type
(mag) Time Alt. Az. Time Alt. Az. Time Alt. Az.
23 Nov - 05:05:40 10° SW 05:10:14 66° SE 05:14:42 10° NE daylight
23 Nov - 06:50:49 10° WNW 06:51:23 10° NW 06:51:56 10° NW daylight
23 Nov - 19:02:50 10° NNW 19:07:23 60° NE 19:12:02 10° SE night (unlit)
23 Nov - 20:46:24 10° WSW 20:49:11 15° SW 20:51:58 10° S night (unlit)
24 Nov - 03:41:57 10° S 03:45:03 18° SE 03:48:07 10° E daylight
24 Nov - 05:22:19 10° SW 05:26:44 47° NW 05:31:01 10° NNE daylight
24 Nov - 17:40:22 10° NNE 17:42:41 14° NE 17:45:02 10° E night (unlit)
24 Nov - 19:19:23 10° WNW 19:23:55 54° SW 19:28:32 10° SSE night (unlit)
25 Nov - 03:57:29 10° SSW 04:01:49 38° SE 04:06:03 10° ENE daylight
25 Nov - 05:39:57 10° W 05:43:07 18° NW 05:46:13 10° N daylight
25 Nov - 17:54:53 10° NNW 17:59:03 34° NE 18:03:18 10° ESE visible
25 Nov - 19:36:51 10° W 19:40:36 23° SW 19:44:24 10° SSE night (unlit)
26 Nov - 02:34:57 10° SSE 02:36:27 11° SE 02:37:57 10° SE visible
26 Nov - 04:13:46 10° SW 04:18:24 84° NW 04:22:54 10° NE daylight
26 Nov - 18:10:53 10° NW 18:15:30 89° NE 18:20:13 10° SE visible
26 Nov - 19:56:07 10° SW 19:57:29 11° SW 19:58:50 10° SSW night (unlit)
27 Nov - 02:49:32 10° SSW 02:53:19 24° SE 02:57:04 10° E visible
27 Nov - 04:30:45 10° WSW 04:34:50 31° NW 04:38:50 10° N daylight
27 Nov - 16:47:23 10° N 16:50:45 20° NE 16:54:10 10° E visible
27 Nov - 18:27:49 10° WNW 18:32:06 37° SW 18:36:28 10° SSE visible
28 Nov - 03:05:25 10° SSW 03:10:00 57° SE 03:14:28 10° NE daylight
28 Nov - 04:49:18 10° WNW 04:51:11 12° NW 04:53:04 10° NNW daylight
28 Nov - 17:02:42 10° NNW 17:07:09 51° NE 17:11:41 10° SE visible
28 Nov - 18:45:48 10° W 18:48:51 17° SW 18:51:57 10° S visible
29 Nov - 01:41:54 10° S 01:44:46 16° SE 01:47:35 10° ESE visible
29 Nov - 03:21:58 10° SW 03:26:31 55° NW 03:30:57 10° NNE daylight
29 Nov - 15:40:57 10° NE 15:42:28 11° NE 15:44:00 10° ENE daylight
29 Nov - 17:19:06 10° NW 17:23:39 62° SW 17:28:18 10° SE visible
30 Nov - 01:57:17 10° SSW 02:01:33 34° SE 02:05:43 10° ENE visible
30 Nov - 03:39:23 10° WSW 03:42:55 22° NW 03:46:23 10° N daylight
30 Nov - 15:54:52 10° N 15:58:50 29° NE 16:02:52 10° ESE daylight
30 Nov - 17:36:26 10° W 17:40:18 26° SW 17:44:15 10° SSE visible
01 Dec - 00:35:33 10° SSE 00:36:08 10° SE 00:36:43 10° SE visible
01 Dec - 02:13:28 10° SW 02:18:09 85° SE 02:22:43 10° NE visible
01 Dec - 16:10:42 10° NW 16:15:15 77° NE 16:19:55 10° SE daylight
01 Dec - 17:55:13 10° WSW 17:57:09 12° SW 17:59:07 10° SSW visible
02 Dec - 00:49:24 10° S 00:53:03 22° SE 00:56:37 10° E visible
02 Dec - 02:30:19 10° WSW 02:34:36 37° NW 02:38:49 10° NNE visible
02 Dec - 14:47:34 10° NNE 14:50:32 17° NE 14:53:33 10° E daylight
02 Dec - 16:27:29 10° WNW 16:31:49 42° SW 16:36:15 10° SSE daylight
